Regional Weather Roundup
Issued by NWS Cleveland, OH

Home | Current Version | Previous Version | Graphics & Text | Print | Product List | Glossary On
Versions: 1 2 3 4 5 6 7 8 9 10 11 12 13 14 15 16 17 18 19 20 21 22 23 24 25 26 27 28 29 30 31 32 33 34 35 36 37 38 39 40 41 42 43 44 45 46 47 48 49 50
000
ASUS41 KCLE 261610
RWRCLE
OHIO REGIONAL WEATHER ROUNDUP
NATIONAL WEATHER SERVICE WILMINGTON, OH
1200 PM EDT THU APR 26 2018

NOTE: "FAIR" INDICATES FEW OR NO CLOUDS BELOW 12,000 FEET WITH NO
SIGNIFICANT WEATHER AND/OR OBSTRUCTIONS TO VISIBILITY.

OHZ001>008-015>018-024>027-034-035-043-044-261700-
   NORTHWEST OHIO

CITY           SKY/WX    TMP DP  RH WIND       PRES   REMARKS
DEFIANCE       PTSUNNY   51  39  63 SW5       29.97S
FINDLAY        FAIR      55  39  54 CALM      29.95S
TOLEDO EXPRESS FAIR      53  38  56 VRB3      29.96S
TOLEDO EXEC    FAIR      53  38  56 SW6       29.97S
LIMA           FAIR      54  43  66 SE8       29.95S
$$

OHZ009>014-019>023-028>033-038-089-261700-
   NORTHEAST OHIO

CITY           SKY/WX    TMP DP  RH WIND       PRES   REMARKS
CLE-HOPKINS    FAIR      51  36  56 VRB5      29.98S
CLE-LAKEFRONT  FAIR      46  38  73 NW6       29.96S
CUY CO. ARPT   MOSUNNY   50  37  62 N5        29.96S
LORAIN-ELYRIA  FAIR      49  33  54 VRB5      29.96S
ASHTABULA      FAIR      49  35  58 N9        29.95S
AKRON-CANTON   FAIR      51  35  54 CALM      29.95S
WOOSTER        FAIR      49  38  65 CALM      29.96S
MANSFIELD      FAIR      53  38  56 VRB3      29.95S
YOUNGSTOWN     FAIR      52  35  52 VRB6      29.94R
$$

OHZ042-051>053-060>062-070>072-077>081-261700-
  SOUTHWEST OHIO

CITY           SKY/WX    TMP DP  RH WIND       PRES   REMARKS
CINC-COVINGTON FAIR      60  39  45 CALM      29.92F
CINC-LUNKEN    FAIR      60  44  55 VRB3      29.93F
HAMILTON       FAIR      59  40  49 CALM      29.94F
DAYTON         FAIR      57  45  64 CALM      29.94S
WRIGHT-PAT AFB MOSUNNY   57  43  60 CALM      29.93S
DAYTON GENERAL FAIR      58  39  49 CALM      29.92F
WILMINGTON     FAIR      67  48  50 VRB5      29.92F
$$

OHZ036-037-039>041-045>050-054>059-063>069-073>076-082>088-261700-
  CENTRAL AND SOUTHEAST OHIO

CITY           SKY/WX    TMP DP  RH WIND       PRES   REMARKS
COLUMBUS       FAIR      57  44  62 E6        29.95S
OSU AIRPORT    FAIR      55  42  61 CALM      29.95S
BOLTON FIELD   SUNNY     55  45  67 E7        29.95F
RICKENBACK AFB FAIR      56  45  65 SE3       29.94F
NEWARK         FAIR      54  42  64 VRB6      29.95F
MARION         CLOUDY    53  40  61 S10       29.96R
LANCASTER      FAIR      59  46  62 SE10      29.95F
ZANESVILLE     FAIR      54  42  64 SW3       29.96F
NEW PHILLY     FAIR      52  39  61 CALM      29.97S
$$




USA.gov is the U.S. government's official web portal to all federal, state and local government web resources and services.